Flag for Montserrat Weather past 2 weeks in Brades, Montserrat

Now
81 °F

Passing clouds.


Feels Like: 85 °F
Forecast: 80 / 83 °F
Wind: 14 mph from East

Location: Vc Bird International Antigua Airport

Current Time: Jul 6, 2015 at 7:41:54 AM

Latest Report: Jul 6, 2015 at 7:00 AM


Visibility: N/A

Pressure: 30.04 "Hg

Humidity: 74%

Dew point: 72 °F

Location of BradesLocation

Historic Weather in Brades — Graph

°F

Brades temperature yesterday

Maximum temperature yesterday: 86 °F (at 10:00 AM)
Minimum temperature yesterday: 81 °F (at 12:00 AM)
Average temperature yesterday: 83 °F

Past Weeks' High & Low Weather Summary

 TemperatureHumidityPressure
High86 °F (Jun 21, 11:00 AM)94% (Jun 25, 9:00 PM)30.15 "Hg (Jun 25, 9:00 PM)
Low75 °F (Jun 22, 8:00 AM)55% (Jun 25, 9:00 AM)30.01 "Hg (Jul 2, 4:00 PM)
Average82 °F73%30.08 "Hg
* Reported Jun 21 6:00 AM — Jul 6 6:00 AM, Brades, Weather by CustomWeather, © 2015

Note: Actual official high and low records may vary slightly from our data, if they occured in-between our weather recording intervals... More about our weather records

Advertising

Brades weather history for previous 24 hours

 ConditionsComfort  
Time TempWeatherWind HumidityBarometerVisibility
6:00 AM
Mon, Jul 6
81 °FScattered clouds.14 mph74%30.01 "HgN/A
5:00 AM79 °FPassing clouds.14 mph79%30.01 "HgN/A
4:00 AM81 °FPassing clouds.12 mph79%30.01 "HgN/A
3:00 AM79 °FPassing clouds.12 mph79%30.01 "HgN/A
2:00 AM81 °FPassing clouds.12 mph74%30.04 "HgN/A
1:00 AM81 °FPassing clouds.12 mph79%30.04 "HgN/A
12:00 AM81 °FPassing clouds.12 mph79%30.07 "HgN/A
11:00 PM
Sun, Jul 5
81 °FPassing clouds.12 mph79%30.07 "HgN/A
9:00 PM81 °FPassing clouds.12 mph79%30.07 "HgN/A
8:00 PM81 °FPassing clouds.12 mph74%30.07 "HgN/A
7:00 PM81 °FPassing clouds.12 mph74%30.07 "HgN/A
6:00 PM82 °FPassing clouds.12 mph70%30.04 "HgN/A
5:00 PM84 °FPassing clouds.13 mph66%30.01 "HgN/A
4:00 PM84 °FScattered clouds.14 mph66%30.01 "HgN/A
3:00 PM84 °FPassing clouds.16 mph66%30.04 "HgN/A
2:00 PM86 °FPassing clouds.16 mph62%30.04 "HgN/A
1:00 PM84 °FPartly sunny.15 mph66%30.04 "HgN/A
12:00 PM86 °FPartly sunny.15 mph66%30.04 "HgN/A
11:00 AM86 °FPassing clouds.14 mph62%30.07 "HgN/A
10:00 AM86 °FScattered clouds.15 mph66%30.07 "HgN/A
9:00 AM84 °FScattered clouds.14 mph70%30.07 "HgN/A
8:00 AM82 °FScattered clouds.12 mph74%30.07 "HgN/A
7:00 AM82 °FScattered clouds.15 mph70%30.07 "HgN/A
Weather by CustomWeather, © 2015

See weather overviewHow to use our weather pages